"Period start","avg(HW err(1)/warn(2) (#))","avg(Visibility (m))","avg(Weather code (#))","avg(Precip intensity (mm/h))","min(HW err(1)/warn(2) (#))","max(HW err(1)/warn(2) (#))","std(HW err(1)/warn(2) (#))","med(HW err(1)/warn(2) (#))","min(Visibility (m))","max(Visibility (m))","std(Visibility (m))","med(Visibility (m))","min(Weather code (#))","max(Weather code (#))","std(Weather code (#))","med(Weather code (#))","min(Precip intensity (mm/h))","max(Precip intensity (mm/h))","std(Precip intensity (mm/h))","med(Precip intensity (mm/h))"
2014-08-27 00:00:00,0,48819,0,0.00,0,0,0,0,41863,50000,2454,50000,0,0,0,0,0.00,0.00,0.00,0.00
2014-08-27 00:10:00,0,48294,0,0.00,0,0,0,0,44456,50000,2023,49457,0,0,0,0,0.00,0.00,0.00,0.00
2014-08-27 00:20:00,0,48222,0,0.00,0,0,0,0,42801,50000,2320,49672,0,0,0,0,0.00,0.00,0.00,0.00
2014-08-27 00:30:00,0,49279,0,0.00,0,0,0,0,45069,50000,1559,50000,0,0,0,0,0.00,0.00,0.00,0.00
2014-08-27 00:40:00,0,49046,0,0.00,0,0,0,0,44993,50000,1623,50000,0,0,0,0,0.00,0.00,0.00,0.00
2014-08-27 00:50:00,0,50000,0,0.00,0,0,0,0,50000,50000,0,50000,0,0,0,0,0.00,0.00,0.00,0.00
2014-08-27 01:00:00,0,49471,0,0.00,0,0,0,0,47270,50000,948,50000,0,0,0,0,0.00,0.00,0.00,0.00
2014-08-27 01:10:00,0,49093,0,0.00,0,0,0,0,45022,50000,1711,50000,0,0,0,0,0.00,0.00,0.00,0.00
2014-08-27 01:20:00,0,47793,0,0.00,0,0,0,0,41932,50000,3172,50000,0,0,0,0,0.00,0.00,0.00,0.00
2014-08-27 01:30:00,0,50000,0,0.00,0,0,0,0,50000,50000,0,50000,0,0,0,0,0.00,0.00,0.00,0.00
2014-08-27 01:40:00,0,47554,0,0.00,0,0,0,0,39308,50000,3904,50000,0,0,0,0,0.00,0.00,0.00,0.00
2014-08-27 01:50:00,0,50000,0,0.00,0,0,0,0,50000,50000,0,50000,0,0,0,0,0.00,0.00,0.00,0.00
"Period start","avg(HW err(1)/warn(2) (#))","avg(Visibility (m))","avg(Weather code (#))","avg(Precip intensity (mm/h))","min(HW err(1)/warn(2) (#))","max(HW err(1)/warn(2) (#))","std(HW err(1)/warn(2) (#))","med(HW err(1)/warn(2) (#))","min(Visibility (m))","max(Visibility (m))","std(Visibility (m))","med(Visibility (m))","min(Weather code (#))","max(Weather code (#))","std(Weather code (#))","med(Weather code (#))","min(Precip intensity (mm/h))","max(Precip intensity (mm/h))","std(Precip intensity (mm/h))","med(Precip intensity (mm/h))"
2014-08-27 04:10:00,2,50000,0,0.00,2,2,0,2,50000,50000,0,50000,0,0,0,0,0.00,0.00,0.00,0.00
2014-08-27 04:20:00,2,49560,0,0.00,0,2,1,2,47500,50000,793,50000,0,0,0,0,0.00,0.00,0.00,0.00
2014-08-27 04:30:00,0,49928,0,0.00,0,0,0,0,49281,50000,216,50000,0,0,0,0,0.00,0.00,0.00,0.00
2014-08-27 04:40:00,0,50000,0,0.00,0,0,0,0,50000,50000,0,50000,0,0,0,0,0.00,0.00,0.00,0.00
2014-08-27 04:50:00,0,50000,0,0.00,0,0,0,0,50000,50000,0,50000,0,0,0,0,0.00,0.00,0.00,0.00
2014-08-27 05:00:00,0,46115,0,0.00,0,0,0,0,33198,50000,5941,49750,0,0,0,0,0.00,0.00,0.00,0.00
2014-08-27 05:10:00,0,44279,0,0.00,0,0,0,0,32113,50000,5892,44419,0,0,0,0,0.00,0.00,0.00,0.00
2014-08-27 05:20:00,0,50000,0,0.00,0,0,0,0,50000,50000,0,50000,0,0,0,0,0.00,0.00,0.00,0.00
2014-08-27 05:30:00,0,44555,0,0.00,0,0,0,0,22811,50000,7993,47292,0,0,0,0,0.00,0.00,0.00,0.00
2014-08-27 05:40:00,0,19080,0,0.00,0,0,0,0,13052,29390,4512,18212,0,0,0,0,0.00,0.00,0.00,0.00
2014-08-27 05:50:00,0,21336,0,0.00,0,0,0,0,12881,29737,5570,21212,0,0,0,0,0.00,0.00,0.00,0.00
2014-08-27 06:00:00,0,23667,0,0.00,0,0,0,0,12661,33797,7219,22538,0,0,0,0,0.00,0.00,0.00,0.00
2014-08-27 06:10:00,0,9336,0,0.00,0,0,0,0,5749,13680,2280,9738,0,0,0,0,0.00,0.00,0.00,0.00
2014-08-27 06:20:00,0,4034,10,0.00,0,2,1,0,2972,6570,962,4059,10,10,0,10,0.00,0.00,0.00,0.00
2014-08-27 06:30:00,2,4184,10,0.00,0,2,1,2,3485,4756,390,4224,10,10,0,10,0.00,0.00,0.00,0.00
2014-08-27 06:40:00,2,19391,10,0.00,2,2,0,2,4575,50000,15993,11204,10,10,0,10,0.00,0.00,0.00,0.00
2014-08-27 06:50:00,2,39648,3,0.00,2,2,0,2,19017,50000,11965,44979,0,10,5,0,0.00,0.00,0.00,0.00
2014-08-27 07:00:00,2,15912,0,0.00,2,2,0,2,8299,29557,6814,14436,0,0,0,0,0.00,0.00,0.00,0.00
2014-08-27 07:10:00,2,27447,18,0.34,2,2,0,2,18105,37278,5647,28513,0,61,28,0,0.00,2.45,0.76,0.00
2014-08-27 07:20:00,2,29579,37,0.04,2,2,0,2,15012,44524,10068,31276,0,61,30,61,0.00,0.10,0.04,0.03
2014-08-27 07:30:00,2,45343,0,0.00,2,2,0,2,30332,50000,5835,47954,0,0,0,0,0.00,0.00,0.00,0.00
2014-08-27 07:40:00,2,46699,0,0.00,0,2,1,2,30593,50000,5858,49264,0,0,0,0,0.00,0.00,0.00,0.00
2014-08-27 07:50:00,0,49976,0,0.00,0,2,1,0,49763,50000,71,50000,0,0,0,0,0.00,0.00,0.00,0.00
2014-08-27 08:00:00,0,49290,0,0.00,0,0,0,0,46256,50000,1403,50000,0,0,0,0,0.00,0.00,0.00,0.00
2014-08-27 08:10:00,0,49360,0,0.00,0,0,0,0,46759,50000,1279,50000,0,0,0,0,0.00,0.00,0.00,0.00
2014-08-27 08:20:00,0,49941,0,0.00,0,2,1,0,49622,50000,124,50000,0,0,0,0,0.00,0.00,0.00,0.00
2014-08-27 08:30:00,2,49468,0,0.00,0,2,1,2,46716,50000,1100,50000,0,0,0,0,0.00,0.00,0.00,0.00
2014-08-27 08:40:00,2,49781,0,0.00,0,2,1,2,47807,50000,658,50000,0,0,0,0,0.00,0.00,0.00,0.00
2014-08-27 08:50:00,2,48044,0,0.00,2,2,0,2,40473,50000,3690,50000,0,0,0,0,0.00,0.00,0.00,0.00
2014-08-27 09:00:00,2,46810,0,0.00,2,2,0,2,34617,50000,4981,50000,0,0,0,0,0.00,0.00,0.00,0.00
2014-08-27 09:10:00,1,49591,0,0.00,0,2,1,0,46544,50000,1033,50000,0,0,0,0,0.00,0.00,0.00,0.00
2014-08-27 09:20:00,1,50000,0,0.00,0,2,1,2,50000,50000,0,50000,0,0,0,0,0.00,0.00,0.00,0.00
2014-08-27 09:30:00,2,49891,0,0.00,0,2,1,2,48907,50000,328,50000,0,0,0,0,0.00,0.00,0.00,0.00
2014-08-27 09:40:00,2,49394,0,0.00,0,2,1,2,44062,50000,1778,50000,0,0,0,0,0.00,0.00,0.00,0.00
2014-08-27 09:50:00,2,50000,0,0.00,2,2,0,2,50000,50000,0,50000,0,0,0,0,0.00,0.00,0.00,0.00
2014-08-27 10:00:00,2,50000,0,0.00,0,2,1,2,50000,50000,0,50000,0,0,0,0,0.00,0.00,0.00,0.00
2014-08-27 10:10:00,2,49482,0,0.00,0,2,1,2,46770,50000,1075,50000,0,0,0,0,0.00,0.00,0.00,0.00
2014-08-27 10:20:00,2,50000,0,0.00,0,2,1,2,50000,50000,0,50000,0,0,0,0,0.00,0.00,0.00,0.00
2014-08-27 10:30:00,2,49981,0,0.00,0,2,1,2,49810,50000,57,50000,0,0,0,0,0.00,0.00,0.00,0.00
2014-08-27 10:40:00,2,50000,0,0.00,2,2,0,2,50000,50000,0,50000,0,0,0,0,0.00,0.00,0.00,0.00
2014-08-27 10:50:00,2,50000,0,0.00,2,2,0,2,50000,50000,0,50000,0,0,0,0,0.00,0.00,0.00,0.00
2014-08-27 11:00:00,0,49920,0,0.00,0,0,0,0,49199,50000,240,50000,0,0,0,0,0.00,0.00,0.00,0.00
2014-08-27 11:10:00,0,50000,0,0.00,0,0,0,0,50000,50000,0,50000,0,0,0,0,0.00,0.00,0.00,0.00
2014-08-27 11:20:00,0,49690,0,0.00,0,0,0,0,47302,50000,805,50000,0,0,0,0,0.00,0.00,0.00,0.00
2014-08-27 11:30:00,0,48366,0,0.00,0,0,0,0,40620,50000,2850,49854,0,0,0,0,0.00,0.00,0.00,0.00
2014-08-27 11:40:00,0,46162,0,0.00,0,0,0,0,39106,50000,4359,48668,0,0,0,0,0.00,0.00,0.00,0.00
2014-08-27 11:50:00,0,48346,0,0.00,0,0,0,0,37984,50000,3621,50000,0,0,0,0,0.00,0.00,0.00,0.00
2014-08-27 12:00:00,0,49756,0,0.00,0,0,0,0,48779,50000,488,50000,0,0,0,0,0.00,0.00,0.00,0.00
2014-08-27 12:10:00,0,49952,0,0.00,0,0,0,0,49524,50000,143,50000,0,0,0,0,0.00,0.00,0.00,0.00
2014-08-27 12:20:00,0,48725,0,0.00,0,0,0,0,45715,50000,1506,49496,0,0,0,0,0.00,0.00,0.00,0.00
2014-08-27 12:30:00,0,48822,0,0.00,0,0,0,0,45880,50000,1601,50000,0,0,0,0,0.00,0.00,0.00,0.00
2014-08-27 12:40:00,0,48267,0,0.00,0,0,0,0,43054,50000,2178,49151,0,0,0,0,0.00,0.00,0.00,0.00
2014-08-27 12:50:00,0,49509,0,0.00,0,0,0,0,48012,50000,785,50000,0,0,0,0,0.00,0.00,0.00,0.00
2014-08-27 13:00:00,0,49852,0,0.00,0,0,0,0,49319,50000,268,50000,0,0,0,0,0.00,0.00,0.00,0.00
2014-08-27 13:10:00,0,49687,0,0.00,0,0,0,0,48043,50000,601,50000,0,0,0,0,0.00,0.00,0.00,0.00
2014-08-27 13:20:00,0,42450,0,0.00,0,0,0,0,25810,50000,7063,42648,0,0,0,0,0.00,0.00,0.00,0.00
2014-08-27 13:30:00,0,21160,0,0.00,0,0,0,0,19556,24757,1834,20232,0,0,0,0,0.00,0.00,0.00,0.00
2014-08-27 13:40:00,0,10704,0,0.00,0,0,0,0,5187,23146,5361,9160,0,0,0,0,0.00,0.00,0.00,0.00
2014-08-27 13:50:00,0,12617,0,0.00,0,0,0,0,10964,13673,955,12577,0,0,0,0,0.00,0.00,0.00,0.00
2014-08-27 14:00:00,0,14445,0,0.00,0,0,0,0,11912,16000,1131,14580,0,0,0,0,0.00,0.00,0.00,0.00
2014-08-27 14:10:00,0,11858,0,0.00,0,0,0,0,10426,16643,1956,10967,0,0,0,0,0.00,0.00,0.00,0.00
2014-08-27 14:20:00,0,15023,0,0.00,0,0,0,0,12252,17411,1779,15526,0,0,0,0,0.00,0.00,0.00,0.00
2014-08-27 14:30:00,0,18017,0,0.00,0,0,0,0,16430,21539,1331,17766,0,0,0,0,0.00,0.00,0.00,0.00
2014-08-27 14:40:00,0,19032,0,0.00,0,0,0,0,16807,23197,1782,18656,0,0,0,0,0.00,0.00,0.00,0.00
2014-08-27 14:50:00,0,23290,0,0.00,0,0,0,0,19166,31103,3635,22692,0,0,0,0,0.00,0.00,0.00,0.00
2014-08-27 15:00:00,0,23530,0,0.00,0,0,0,0,21405,25669,1316,23590,0,0,0,0,0.00,0.00,0.00,0.00
2014-08-27 15:10:00,0,24210,0,0.00,0,0,0,0,20103,32382,3526,23869,0,0,0,0,0.00,0.00,0.00,0.00
2014-08-27 15:20:00,0,32470,0,0.00,0,0,0,0,27732,36696,3418,32929,0,0,0,0,0.00,0.00,0.00,0.00
2014-08-27 15:30:00,0,23106,0,0.00,0,0,0,0,15575,31627,4484,24044,0,0,0,0,0.00,0.00,0.00,0.00
2014-08-27 15:40:00,0,11810,0,0.00,0,0,0,0,6361,20387,5471,9724,0,0,0,0,0.00,0.00,0.00,0.00
2014-08-27 15:50:00,0,8659,10,0.00,0,0,0,0,5733,12017,1922,8944,10,10,0,10,0.00,0.00,0.00,0.00
2014-08-27 16:00:00,0,17832,6,0.00,0,0,0,0,13164,23383,2953,17900,0,10,5,10,0.00,0.00,0.00,0.00
2014-08-27 16:10:00,0,23130,0,0.00,0,0,0,0,17539,29376,4039,23540,0,0,0,0,0.00,0.00,0.00,0.00
2014-08-27 16:20:00,0,35199,0,0.00,0,0,0,0,28826,40589,3930,35257,0,0,0,0,0.00,0.00,0.00,0.00
2014-08-27 16:30:00,0,42236,0,0.00,0,0,0,0,30905,50000,6442,42178,0,0,0,0,0.00,0.00,0.00,0.00
2014-08-27 16:40:00,0,49127,0,0.00,0,0,0,0,45595,50000,1513,50000,0,0,0,0,0.00,0.00,0.00,0.00
2014-08-27 16:50:00,0,49855,0,0.00,0,0,0,0,48825,50000,353,50000,0,0,0,0,0.00,0.00,0.00,0.00
2014-08-27 17:00:00,0,50000,0,0.00,0,0,0,0,50000,50000,0,50000,0,0,0,0,0.00,0.00,0.00,0.00
2014-08-27 17:10:00,0,49622,0,0.00,0,0,0,0,47571,50000,794,50000,0,0,0,0,0.00,0.00,0.00,0.00
2014-08-27 17:20:00,0,49911,0,0.00,0,0,0,0,49110,50000,267,50000,0,0,0,0,0.00,0.00,0.00,0.00
2014-08-27 17:30:00,0,49962,0,0.00,0,0,0,0,49620,50000,114,50000,0,0,0,0,0.00,0.00,0.00,0.00
2014-08-27 17:40:00,0,49890,0,0.00,0,0,0,0,48899,50000,330,50000,0,0,0,0,0.00,0.00,0.00,0.00
2014-08-27 17:50:00,0,49813,0,0.00,0,0,0,0,48738,50000,402,50000,0,0,0,0,0.00,0.00,0.00,0.00
2014-08-27 18:00:00,0,50000,0,0.00,0,0,0,0,50000,50000,0,50000,0,0,0,0,0.00,0.00,0.00,0.00
2014-08-27 18:10:00,0,49467,0,0.00,0,0,0,0,46090,50000,1202,50000,0,0,0,0,0.00,0.00,0.00,0.00
2014-08-27 18:20:00,0,50000,0,0.00,0,0,0,0,50000,50000,0,50000,0,0,0,0,0.00,0.00,0.00,0.00
2014-08-27 18:30:00,0,47427,0,0.00,0,0,0,0,33498,50000,4860,50000,0,0,0,0,0.00,0.00,0.00,0.00
2014-08-27 18:40:00,0,49793,0,0.00,0,0,0,0,49067,50000,330,50000,0,0,0,0,0.00,0.00,0.00,0.00
2014-08-27 18:50:00,0,38314,0,0.00,0,0,0,0,28427,47831,6293,40136,0,0,0,0,0.00,0.00,0.00,0.00
2014-08-27 19:00:00,0,32501,0,0.00,0,0,0,0,15947,45669,9674,34422,0,0,0,0,0.00,0.00,0.00,0.00
2014-08-27 19:10:00,0,16847,0,0.00,0,0,0,0,10304,27920,4888,16201,0,0,0,0,0.00,0.00,0.00,0.00
2014-08-27 19:20:00,0,6961,4,0.00,0,0,0,0,5719,8899,899,6926,0,10,5,0,0.00,0.00,0.00,0.00
2014-08-27 19:30:00,0,5507,10,0.00,0,0,0,0,3135,8247,1684,4871,10,10,0,10,0.00,0.00,0.00,0.00
2014-08-27 19:40:00,0,31034,8,0.00,0,0,0,0,13702,50000,13173,29325,0,10,4,10,0.00,0.00,0.00,0.00
2014-08-27 19:50:00,0,15491,0,0.00,0,0,0,0,9351,20362,2840,15591,0,0,0,0,0.00,0.00,0.00,0.00
2014-08-27 20:00:00,0,33619,0,0.00,0,0,0,0,14702,49400,11051,36362,0,0,0,0,0.00,0.00,0.00,0.00
2014-08-27 20:10:00,0,49268,0,0.00,0,0,0,0,45257,50000,1542,50000,0,0,0,0,0.00,0.00,0.00,0.00
2014-08-27 20:20:00,0,50000,0,0.00,0,0,0,0,50000,50000,0,50000,0,0,0,0,0.00,0.00,0.00,0.00
2014-08-27 20:30:00,0,50000,0,0.00,0,0,0,0,50000,50000,0,50000,0,0,0,0,0.00,0.00,0.00,0.00
2014-08-27 20:40:00,0,49944,0,0.00,0,0,0,0,49441,50000,168,50000,0,0,0,0,0.00,0.00,0.00,0.00
2014-08-27 20:50:00,0,36845,0,0.00,0,0,0,0,2620,50000,18475,50000,0,0,0,0,0.00,0.00,0.00,0.00
2014-08-27 21:00:00,0,1591,10,0.00,0,0,0,0,1036,2809,484,1497,10,10,0,10,0.00,0.00,0.00,0.00
2014-08-27 21:10:00,0,2619,10,0.00,0,0,0,0,1139,8424,2128,1796,10,10,0,10,0.00,0.00,0.00,0.00
2014-08-27 21:20:00,0,25756,10,0.00,0,0,0,0,3789,45297,14456,29437,10,10,0,10,0.00,0.00,0.00,0.00
2014-08-27 21:30:00,0,47507,0,0.00,0,0,0,0,34773,50000,5137,50000,0,0,0,0,0.00,0.00,0.00,0.00
2014-08-27 21:40:00,0,49756,0,0.00,0,0,0,0,48696,50000,489,50000,0,0,0,0,0.00,0.00,0.00,0.00
2014-08-27 21:50:00,0,49857,0,0.00,0,0,0,0,48609,50000,416,50000,0,0,0,0,0.00,0.00,0.00,0.00
2014-08-27 22:00:00,0,49895,0,0.00,0,0,0,0,48949,50000,315,50000,0,0,0,0,0.00,0.00,0.00,0.00
2014-08-27 22:10:00,0,48829,0,0.00,0,0,0,0,42794,50000,2205,50000,0,0,0,0,0.00,0.00,0.00,0.00
2014-08-27 22:20:00,0,49786,0,0.00,0,0,0,0,47860,50000,642,50000,0,0,0,0,0.00,0.00,0.00,0.00
2014-08-27 22:30:00,0,50000,0,0.00,0,0,0,0,50000,50000,0,50000,0,0,0,0,0.00,0.00,0.00,0.00
2014-08-27 22:40:00,0,49931,0,0.00,0,0,0,0,49312,50000,206,50000,0,0,0,0,0.00,0.00,0.00,0.00
2014-08-27 22:50:00,0,49571,0,0.00,0,0,0,0,47377,50000,884,50000,0,0,0,0,0.00,0.00,0.00,0.00
2014-08-27 23:00:00,0,50000,0,0.00,0,0,0,0,50000,50000,0,50000,0,0,0,0,0.00,0.00,0.00,0.00
"Period start","avg(HW err(1)/warn(2) (#))","avg(Visibility (m))","avg(Weather code (#))","avg(Precip intensity (mm/h))","min(HW err(1)/warn(2) (#))","max(HW err(1)/warn(2) (#))","std(HW err(1)/warn(2) (#))","med(HW err(1)/warn(2) (#))","min(Visibility (m))","max(Visibility (m))","std(Visibility (m))","med(Visibility (m))","min(Weather code (#))","max(Weather code (#))","std(Weather code (#))","med(Weather code (#))","min(Precip intensity (mm/h))","max(Precip intensity (mm/h))","std(Precip intensity (mm/h))","med(Precip intensity (mm/h))"
2014-08-27 23:20:00,0,49165,0,0.00,0,0,0,0,44892,50000,1721,50000,0,0,0,0,0.00,0.00,0.00,0.00
2014-08-27 23:30:00,0,50000,0,0.00,0,0,0,0,50000,50000,0,50000,0,0,0,0,0.00,0.00,0.00,0.00
2014-08-27 23:40:00,0,49614,0,0.00,0,0,0,0,47675,50000,728,50000,0,0,0,0,0.00,0.00,0.00,0.00
2014-08-27 23:50:00,0,48344,0,0.00,0,0,0,0,40323,50000,3192,50000,0,0,0,0,0.00,0.00,0.00,0.00
